Theta_e
327 327 326 326 326 327 327 327 326 326 325 326 326 327 327 328 329 329 329 329 329 330 330 330 329 328 328 327 326 325 324 324 323 324 323 322 322 321 320 320 318 317
326 326 325 326 326 326 327 327 327 326 326 326 327 327 328 328 328 328 328 328 328 327 328 328 327 327 326 326 325 325 323 322 321 321 320 320 320 318 318 318 318 317
325 325 325 325 325 326 327 328 328 327 326 326 327 327 328 328 328 328 328 327 326 326 326 326 325 324 323 323 323 323 322 321 319 318 318 318 316 316 315 316 314 312
324 324 324 325 325 325 327 327 327 328 327 326 326 327 327 328 327 326 326 319 325 324 324 324 323 323 322 322 320 319 319 319 318 316 315 315 314 314 314 313 312 310
322 323 324 324 325 326 326 326 327 327 326 326 326 327 326 326 325 324 323 321 322 321 321 321 321 322 322 322 321 318 317 316 314 313 312 311 310 311 309 308 308 308
322 322 323 324 325 325 325 325 326 326 326 325 325 325 325 324 322 320 319 317 317 318 317 318 318 318 318 317 317 317 316 313 311 311 309 307 304 303 304 305 303 300
318 320 321 322 323 324 324 325 325 324 324 324 323 321 321 320 318 318 317 316 315 314 315 315 316 315 315 315 314 311 311 308 307 309 307 302 301 300 300 302 301 299
316 317 319 321 321 322 322 322 322 322 321 319 319 318 317 317 316 315 314 314 313 313 312 313 313 313 312 313 312 309 307 306 305 305 302 298 298 298 299 300 300 298
314 315 316 318 318 318 318 319 318 317 318 317 317 314 313 314 313 312 311 311 311 311 311 311 312 310 308 310 309 306 303 302 303 303 300 298 298 297 296 296 296 295
311 312 313 313 313 315 315 315 315 315 314 315 314 312 311 310 311 311 310 309 309 309 309 308 308 306 305 306 306 303 302 300 300 300 299 298 299 297 295 295 295 292
308 309 310 310 309 309 310 310 309 309 308 310 309 308 309 308 307 308 308 308 308 308 307 305 303 303 304 303 302 301 300 299 298 299 298 299 298 295 293 294 294 292
305 306 306 307 308 308 308 307 305 305 305 305 306 308 306 306 306 305 306 306 306 307 306 304 301 301 302 302 301 300 299 297 297 297 297 296 294 294 294 292 292 290
305 305 306 306 306 306 306 304 303 301 303 304 303 304 303 303 302 303 302 304 304 303 303 301 299 299 300 298 297 297 297 297 295 295 294 294 293 292 292 292 291 290
305 306 305 305 304 303 302 300 300 299 300 300 297 300 300 301 301 302 299 300 300 299 298 297 297 297 296 296 296 296 296 295 294 294 294 293 291 291 291 290 290 290
305 303 302 300 298 299 298 298 297 296 295 294 294 295 297 296 298 298 295 296 295 296 296 296 297 297 296 296 296 296 295 293 293 293 293 292 291 290 289 289 289 289
302 300 299 298 298 297 295 293 293 293 293 293 294 294 293 293 293 294 295 295 295 294 295 296 296 297 293 294 295 295 293 292 292 291 291 290 289 288 288 288 288 288
299 297 294 295 297 294 293 292 292 292 292 292 292 292 292 292 293 293 293 293 294 294 294 295 297 295 291 294 294 293 292 292 291 290 290 289 288 287 286 287 287 286
298 296 294 294 294 293 292 292 292 291 291 291 291 291 291 291 293 293 294 293 294 294 294 294 295 292 293 294 293 293 292 291 290 290 289 288 287 287 286 286 286 285
296 294 294 294 293 294 293 292 291 290 291 290 290 290 290 291 292 292 292 293 294 294 294 294 293 291 293 293 293 293 292 291 290 289 288 287 287 287 286 286 285 285
295 294 294 294 292 292 292 291 291 291 291 291 291 290 290 291 291 291 291 292 293 293 293 293 293 290 293 292 292 292 292 291 290 289 288 287 287 287 286 286 285 284
295 294 295 293 292 291 290 291 291 291 289 289 290 290 290 291 290 290 291 290 291 292 291 291 292 290 292 292 292 292 292 291 289 289 288 287 287 287 286 286 285 285
295 294 294 294 292 291 289 289 289 289 289 290 290 290 290 290 290 289 289 289 289 291 291 290 290 290 291 291 291 292 291 289 289 288 287 286 286 286 286 286 285 285
295 294 294 293 291 289 288 289 289 289 289 289 289 289 289 289 289 289 289 289 288 289 290 290 289 289 290 290 291 291 290 288 288 287 286 286 285 285 285 285 285 284
296 295 294 291 289 288 289 289 289 289 288 288 289 288 288 288 288 288 288 288 288 288 290 289 289 288 289 290 290 291 289 287 287 286 285 285 284 285 285 284 284 285
295 294 293 290 289 289 289 288 288 288 288 288 289 288 288 288 287 287 287 287 287 287 287 289 288 287 289 289 290 290 288 287 287 286 285 284 284 283 284 283 283 283
292 290 290 289 289 288 288 289 288 288 287 287 288 288 288 288 287 287 286 287 287 287 287 288 288 287 287 289 289 289 289 287 287 286 284 283 283 283 282 282 282 282
Wind_Speed
10 9 9 10 11 11 11 10 9 10 12 11 11 11 10 9 10 10 11 11 11 11 10 9 9 9 8 9 9 8 8 9 8 7 8 8 8 8 8 8 5 6
11 10 8 9 10 9 10 10 10 10 10 10 9 9 9 9 10 10 11 10 11 10 10 10 9 9 9 9 10 10 10 8 8 5 7 10 7 7 7 7 8 6
11 11 12 13 12 12 12 11 10 9 9 10 9 9 8 8 10 10 9 9 11 11 11 10 10 10 10 9 9 9 9 9 8 7 7 8 6 6 6 6 4 4
11 11 12 12 12 12 10 10 10 8 8 8 8 8 7 6 9 10 9 10 10 10 10 10 10 10 10 10 9 7 7 8 8 9 8 6 5 7 8 7 7 6
10 11 12 12 11 11 10 9 9 9 8 7 7 7 8 7 8 8 8 8 9 9 9 9 9 9 9 9 10 8 8 7 7 8 8 7 5 6 6 6 7 7
8 9 10 11 10 10 12 11 10 8 8 9 9 7 7 6 6 6 7 8 8 8 8 8 9 9 8 8 8 9 9 7 7 9 9 8 6 3 5 6 7 7
11 11 12 10 10 9 10 10 8 8 7 7 6 7 6 6 6 8 8 8 8 8 8 8 9 8 8 8 9 6 6 7 8 8 9 7 8 6 4 6 7 8
11 10 9 8 9 10 11 10 9 8 7 6 7 6 7 8 8 8 7 8 8 8 8 8 8 8 9 9 9 8 7 6 7 8 8 7 7 7 6 5 7 8
7 9 9 10 9 8 9 8 7 7 7 8 7 6 6 7 8 8 8 8 8 8 9 9 9 8 7 9 9 9 9 7 8 9 9 9 8 7 7 6 7 7
6 5 6 5 6 6 6 5 5 5 5 7 6 6 7 6 7 7 7 8 8 8 8 8 8 7 8 9 10 10 10 9 8 8 8 9 9 8 8 8 8 8
6 6 6 5 5 3 4 4 4 4 4 6 5 6 6 6 6 6 7 8 8 9 8 8 7 8 8 8 8 8 9 9 9 8 8 8 7 8 8 8 8 9
8 7 7 6 5 4 4 3 3 3 3 3 5 6 6 6 7 6 7 8 7 8 8 9 9 8 9 10 10 10 10 8 7 7 7 7 7 7 8 7 8 8
7 7 6 5 4 4 3 3 3 3 3 4 3 4 5 6 5 6 5 6 7 6 8 8 9 8 7 7 8 8 9 8 8 7 7 6 6 7 7 7 8 8
6 4 4 3 2 2 2 2 2 2 3 2 2 3 4 5 6 6 5 4 5 6 5 5 6 7 6 7 8 8 9 8 8 8 8 7 7 8 7 7 7 7
3 2 1 1 1 1 1 1 1 1 1 2 3 3 3 4 4 4 5 4 4 5 7 7 8 7 7 9 9 8 8 8 8 9 9 9 9 8 7 7 6 6
4 3 4 4 4 5 3 2 2 2 2 2 1 1 1 2 3 3 4 5 5 5 5 6 7 7 7 10 9 10 10 8 7 8 9 10 10 9 8 7 6 5
4 4 3 4 5 3 3 4 3 3 3 3 3 3 4 4 5 5 5 5 6 7 7 7 6 6 11 11 12 13 10 9 10 9 9 10 10 10 10 9 7 6
4 4 4 4 4 5 5 4 4 4 4 4 4 3 3 3 5 6 6 6 6 6 7 7 6 8 15 14 15 15 12 10 9 10 10 10 9 9 9 8 8 8
5 5 4 4 4 4 4 5 4 5 4 5 5 4 4 4 4 4 5 5 7 8 7 7 5 10 14 15 16 16 15 12 9 9 10 10 10 9 9 9 9 8
5 5 5 4 2 3 4 4 5 6 5 4 4 4 4 4 3 4 4 5 6 7 6 7 6 9 14 15 15 16 16 12 8 10 9 10 10 10 9 9 10 10
4 4 5 4 4 4 3 4 4 4 3 3 4 4 5 7 7 7 6 5 5 5 5 6 4 11 14 15 16 17 16 12 8 8 8 8 8 8 9 9 9 8
4 4 4 3 4 4 4 4 4 3 4 3 3 3 3 2 2 2 4 5 5 6 6 6 4 11 13 14 16 17 17 9 7 9 8 8 8 7 7 7 7 8
4 5 4 4 3 3 3 3 3 3 3 2 3 3 3 4 4 4 4 5 5 5 6 6 5 11 13 14 15 17 14 6 8 7 7 8 8 7 7 7 7 8
4 5 5 3 3 4 3 3 2 2 3 3 4 4 5 4 3 3 3 4 5 6 8 6 6 11 15 15 17 19 15 9 8 8 7 7 7 6 5 6 6 10
5 5 5 4 4 4 4 4 4 3 2 3 2 2 2 1 2 3 3 3 4 5 6 6 4 8 15 16 17 18 14 6 7 8 8 7 7 6 5 5 6 7
3 4 4 4 5 4 3 4 3 3 3 3 2 2 2 1 2 3 4 3 3 4 4 6 4 6 11 16 17 18 17 9 7 9 11 10 7 8 7 5 7 7
Wind_Direction
221 221 225 230 235 235 233 230 224 221 224 224 221 219 217 208 208 201 204 201 199 201 202 199 190 189 187 186 183 182 186 194 188 185 187 188 203 199 199 203 187 181
218 223 225 233 235 230 236 234 227 223 222 225 222 220 219 213 209 205 203 199 196 201 200 201 194 192 190 189 187 189 190 186 183 175 181 190 194 183 186 194 189 182
212 214 219 223 229 232 229 230 230 224 218 221 219 214 219 206 207 207 203 197 196 199 198 196 194 192 188 188 188 192 187 177 175 170 173 184 168 170 174 180 149 152
219 222 224 224 225 231 234 231 227 222 210 214 216 209 218 202 201 198 202 196 198 197 195 193 191 188 186 186 180 186 186 176 171 165 160 162 170 170 172 167 157 155
222 225 228 229 227 228 232 234 232 219 208 206 219 212 214 198 197 196 199 197 197 197 194 194 192 189 186 187 178 179 177 171 157 162 155 159 156 165 151 144 149 153
231 233 230 230 231 230 230 232 225 219 212 208 213 204 208 189 196 198 196 194 197 195 193 191 191 187 179 176 180 186 175 162 160 160 156 154 147 132 136 141 136 133
230 230 231 231 232 230 231 231 224 216 212 209 194 194 185 199 199 202 199 195 191 191 190 191 189 179 176 177 185 175 160 148 153 160 156 145 148 145 143 149 141 143
221 227 232 229 222 223 224 223 222 216 205 201 206 196 186 200 201 197 192 190 191 190 191 188 188 182 172 167 172 161 148 149 157 154 140 141 150 155 156 155 150 147
214 221 227 231 230 223 220 215 214 211 202 207 207 194 193 196 196 193 190 189 191 189 189 190 187 177 176 171 161 154 154 158 162 159 154 156 163 162 159 148 145 153
222 228 235 242 241 236 228 217 212 209 200 211 202 190 193 198 194 191 190 191 191 190 185 185 186 175 171 171 159 158 161 163 163 161 159 163 168 162 161 161 161 159
235 233 234 234 243 248 244 230 222 210 201 204 193 194 194 190 195 187 187 188 192 188 182 180 173 172 171 155 148 154 159 160 161 160 163 169 167 159 160 166 169 171
233 232 230 232 233 235 234 233 224 212 206 208 192 195 192 192 188 188 186 189 189 189 185 179 169 175 180 167 161 157 154 156 158 162 159 157 155 159 161 165 171 167
230 230 222 221 221 226 226 220 216 216 205 208 203 200 189 189 192 187 194 189 188 181 181 174 171 168 165 154 150 146 146 148 153 158 152 153 152 156 161 166 167 165
233 230 226 225 243 234 219 216 207 201 216 209 172 196 193 194 187 190 188 180 170 166 162 155 155 153 153 152 150 149 147 152 155 158 158 154 149 157 159 161 157 159
210 185 162 108 105 120 154 165 171 180 162 157 175 194 195 197 181 165 150 154 153 161 156 159 163 170 165 158 152 151 152 155 161 164 163 158 158 156 152 149 149 147
191 164 163 161 164 172 165 148 149 142 140 141 155 139 120 127 135 149 164 162 157 153 157 164 173 174 177 172 158 153 153 152 154 158 160 160 161 158 152 149 144 133
186 178 166 184 178 160 148 156 150 144 144 142 141 150 156 157 154 157 167 166 166 166 166 173 175 171 164 160 151 149 152 157 160 161 160 160 164 165 160 154 142 122
191 173 181 187 170 176 169 160 147 146 152 151 146 155 163 158 172 178 174 170 165 169 173 175 177 168 171 168 164 162 163 160 161 162 164 165 166 164 160 155 145 137
185 187 195 190 192 172 154 143 148 149 152 159 174 165 146 167 186 169 176 174 172 174 180 180 180 169 174 171 168 166 165 161 167 166 164 168 167 167 163 157 150 145
193 197 199 195 168 144 145 157 163 174 167 156 136 137 160 163 158 172 170 178 180 180 179 179 175 174 175 175 171 169 168 166 170 168 171 168 169 167 164 162 159 156
197 203 201 176 161 154 150 163 172 155 152 160 163 171 175 178 177 178 181 180 175 171 172 182 185 174 179 179 177 172 170 168 171 172 171 168 165 162 163 162 162 160
186 195 199 177 163 161 163 169 169 176 172 160 156 168 169 155 162 175 176 184 183 177 176 190 177 178 186 185 181 176 171 170 172 175 173 167 160 159 160 163 161 161
182 187 192 180 166 166 182 181 177 174 163 152 155 172 176 184 186 188 183 181 183 187 184 190 175 186 188 189 184 178 171 177 173 179 175 166 164 157 159 160 163 165
181 184 184 177 168 185 189 197 189 170 169 172 182 178 188 195 184 176 177 185 186 196 194 191 188 183 188 191 186 181 180 177 179 179 173 167 156 158 151 157 161 167
182 185 185 177 183 190 183 182 183 183 167 160 181 176 192 155 164 177 179 190 197 204 207 208 194 183 188 190 189 185 183 181 179 176 172 175 164 159 154 152 157 175
179 178 180 176 187 186 180 183 169 151 151 170 171 169 172 149 184 198 198 211 197 206 212 211 191 178 189 191 192 190 188 180 180 176 185 180 172 169 164 171 172 184